Flag for Angola Weather past 2 weeks in Luanda, Angola

Now
81 °F

Clear.


Feels Like: 85 °F
Forecast: 79 / 87 °F
Wind: 7 mph from Southwest

Location: Luanda Airport

Current Time: Jan 31, 2015 at 10:13:45 PM

Latest Report: Jan 31, 2015 at 9:00 PM


Visibility: 10 mi

Pressure: 29.86 "Hg

Humidity: 74%

Dew point: 72 °F

Location of LuandaLocation

Historic Weather in Luanda — Graph

°F

Luanda temperature yesterday

Maximum temperature yesterday: 90 °F (at 10:00 AM)
Minimum temperature yesterday: 77 °F (at 6:00 AM)
Average temperature yesterday: 83 °F

Past Weeks' High & Low Weather Summary

 TemperatureHumidityPressure
High90 °F (Jan 20, 3:00 PM)94% (Jan 19, 8:00 AM)30.15 "Hg (Jan 19, 8:00 AM)
Low61 °F (Jan 19, 8:00 AM)49% (Jan 20, 11:00 AM)29.77 "Hg (Jan 24, 5:00 PM)
Average82 °F73%29.88 "Hg
* Reported Jan 16 7:00 PM — Jan 31 7:00 PM, Luanda, Weather by CustomWeather, © 2014

Note: Actual official high and low records may vary slightly from our data, if they occured in-between our weather recording intervals... More about our weather records

Advertising

Luanda weather history for previous 24 hours

 ConditionsComfort  
Time TempWeatherWind HumidityBarometerVisibility
7:00 PM
Jan 31
81 °FPassing clouds.7 mph74%29.86 "HgN/A
6:00 PM84 °FBroken clouds.10 mph66%29.83 "HgN/A
5:00 PM86 °FBroken clouds.9 mph62%29.83 "HgN/A
4:00 PM86 °FBroken clouds.14 mph62%29.83 "HgN/A
3:00 PM86 °FBroken clouds.12 mph59%29.83 "HgN/A
1:00 PM86 °FBroken clouds.9 mph66%29.89 "HgN/A
12:00 PM88 °FBroken clouds.8 mph62%29.92 "HgN/A
11:00 AM88 °FBroken clouds.5 mph59%29.92 "HgN/A
10:00 AM84 °FBroken clouds.3 mph66%29.92 "HgN/A
9:00 AM82 °FBroken clouds.9 mph70%29.92 "HgN/A
8:00 AM79 °FBroken clouds.9 mph84%29.89 "HgN/A
7:00 AM79 °FBroken clouds.6 mph84%29.89 "HgN/A
6:00 AM79 °FPartly cloudy.7 mph79%29.89 "HgN/A
5:00 AM79 °FPassing clouds.6 mph84%29.86 "HgN/A
4:00 AM79 °FPassing clouds.6 mph84%29.86 "HgN/A
3:00 AM79 °FPassing clouds.6 mph84%29.89 "HgN/A
2:00 AM79 °FPassing clouds.7 mph84%29.89 "HgN/A
1:00 AM79 °FPartly cloudy.6 mph84%29.89 "HgN/A
12:00 AM81 °FPassing clouds.6 mph79%29.89 "HgN/A
11:00 PM
Jan 30
81 °FPartly cloudy.7 mph79%29.89 "HgN/A
10:00 PM81 °FPassing clouds.8 mph79%29.89 "HgN/A
Weather by CustomWeather, © 2014

See weather overviewHow to use our weather pages